Barcelona, Spain

5:05 PM CEST on September 21, 2017 (GMT +0200)
El Prat

Weather History for LEBL - December, 2013

Change the Weather History Date:

Tuesday, December 3, 2013

  Actual Average Record
Temperature  
Mean Temperature 53 °F -  
Max Temperature 62 °F 55 °F 64 °F (2006)
Min Temperature 44 °F 42 °F 39 °F (2008)
Degree Days  
Heating Degree Days 12    
Growing Degree Days 3 (Base 50)    
Moisture  
Dew Point 37 °F    
Average Humidity 56    
Maximum Humidity 82    
Minimum Humidity 38    
Precipitation  
Precipitation 0.00 in 0.06 in - ()
Sea Level Pressure  
Sea Level Pressure 30.28 in    
Wind  
Wind Speed 10 mph ()    
Max Wind Speed 21 mph    
Max Gust Speed -    
Visibility 9.2 miles    
Events      
Averages and records for this station are not official NWS values.
T = Trace of Precipitation, MM = Missing Value Source: Averaged Metar Reports

Daily Weather History Graph

Daily Weather History Graph

Search for Another Location

Airport or City:

Trip Planner

Search our weather history database for the weather conditions in past years. The results will help you decide how hot, cold, wet, or windy it might be!

Date:

Astronomy

Dec. 03, 2013 Rise Set
Actual Time 8:00 AM CET 5:22 PM CET
Civil Twilight 7:29 AM CET 5:53 PM CET
Nautical Twilight 6:54 AM CET 6:28 PM CET
Astronomical Twilight 6:21 AM CET 7:01 PM CET
Moon 8:13 AM CET (12/3) 6:10 PM CET (12/3)
Length of Visible Light 10h 24m
Length of Day
9h 22m
New Moon, 0% of the Moon is Illuminated
Dec 3
New Moon
Dec 9
First Quarter
Dec 17
Full
Dec 25
Last Quarter
Jan 1
New

Hourly Weather History & Observations

Time (CET) Temp. Windchill Dew Point Humidity Pressure Visibility Wind Dir Wind Speed Gust Speed Precip Events Conditions
12:00 AM 49 °F - 31 °F 38% 30.23 in 19 mi North 18.4 mph - -  
12:00 AM 48.2 °F - 28.4 °F 46% 30.21 in 6.2 mi NW 16.1 mph - N/A   Partly Cloudy
12:30 AM 48.2 °F - 28.4 °F 46% 30.24 in 6.2 mi NW 13.8 mph - N/A   Partly Cloudy
1:00 AM 49 °F - 32 °F 40% 30.24 in 19 mi North 15.0 mph - -   Scattered Clouds
1:00 AM 48.2 °F - 30.2 °F 50% 30.24 in 6.2 mi NW 11.5 mph - N/A   Partly Cloudy
1:30 AM 48.2 °F - 30.2 °F 50% 30.21 in 6.2 mi NW 12.7 mph - N/A   Partly Cloudy
2:00 AM 49 °F - 32 °F 40% 30.24 in 19 mi North 16.1 mph - -  
2:00 AM 48.2 °F - 30.2 °F 50% 30.21 in 6.2 mi NW 12.7 mph - N/A   Partly Cloudy
2:30 AM 50.0 °F - 30.2 °F 47% 30.21 in 6.2 mi NNW 13.8 mph - N/A   Partly Cloudy
3:00 AM 49 °F - 32 °F 40% 30.24 in 19 mi North 20.7 mph - -  
3:00 AM 48.2 °F - 30.2 °F 50% 30.21 in 6.2 mi NNW 12.7 mph - N/A   Partly Cloudy
3:30 AM 48.2 °F - 32.0 °F 54% 30.24 in 6.2 mi NW 10.4 mph - N/A   Partly Cloudy
4:00 AM 46.4 °F 40.7 °F 32.0 °F 57% 30.24 in 6.2 mi NW 12.7 mph - N/A   Partly Cloudy
4:30 AM 48.2 °F - 32.0 °F 54% 30.24 in 6.2 mi NNW 11.5 mph - N/A   Partly Cloudy
5:00 AM 47 °F - 34 °F 50% 30.25 in 13 mi North 12.7 mph - -  
5:00 AM 46.4 °F 41.1 °F 32.0 °F 57% 30.24 in 6.2 mi NNW 11.5 mph - N/A   Partly Cloudy
5:30 AM 46.4 °F 41.9 °F 32.0 °F 57% 30.24 in 6.2 mi NNW 9.2 mph - N/A   Partly Cloudy
6:00 AM 48 °F - 34 °F 48% 30.26 in 16 mi North 15.0 mph - -  
6:00 AM 48.2 °F - 32.0 °F 54% 30.24 in 6.2 mi NW 9.2 mph - N/A   Partly Cloudy
6:30 AM 48.2 °F - 32.0 °F 54% 30.24 in 6.2 mi NNW 8.1 mph - N/A   Partly Cloudy
7:00 AM 47 °F - 35 °F 51% 30.27 in 17 mi North 11.5 mph - -   Scattered Clouds
7:00 AM 46.4 °F 42.9 °F 32.0 °F 57% 30.27 in 6.2 mi NW 6.9 mph - N/A   Partly Cloudy
7:30 AM 46.4 °F 42.4 °F 32.0 °F 57% 30.27 in 6.2 mi NW 8.1 mph - N/A   Partly Cloudy
8:00 AM 45 °F - 35 °F 58% 30.29 in 11 mi North 13.8 mph - -  
8:00 AM 44.6 °F 39.7 °F 32.0 °F 61% 30.27 in 6.2 mi NNW 9.2 mph - N/A   Partly Cloudy
8:30 AM 44.6 °F 39.2 °F 32.0 °F 61% 30.27 in 6.2 mi NNW 10.4 mph - N/A   Partly Cloudy
9:00 AM 45 °F - 35 °F 58% 30.31 in 11 mi North 13.8 mph - -  
9:00 AM 44.6 °F 38.8 °F 33.8 °F 66% 30.30 in 6.2 mi NNW 11.5 mph - N/A   Partly Cloudy
9:30 AM 46.4 °F 41.1 °F 33.8 °F 62% 30.30 in 6.2 mi NW 11.5 mph - N/A   Partly Cloudy
10:00 AM 48.2 °F - 33.8 °F 58% 30.30 in 6.2 mi NNW 9.2 mph - N/A   Partly Cloudy
10:30 AM 50.0 °F - 33.8 °F 54% 30.30 in 6.2 mi NNW 9.2 mph - N/A   Partly Cloudy
11:00 AM 54 °F - 37 °F 42% 30.34 in 9 mi North 8.1 mph - -  
11:00 AM 53.6 °F - 33.8 °F 47% 30.33 in 6.2 mi NNW 6.9 mph - N/A   Partly Cloudy
11:30 AM 57.2 °F - 35.6 °F 44% 30.33 in 6.2 mi North 4.6 mph - N/A   Partly Cloudy
12:00 PM 59.0 °F - 37.4 °F 45% 30.30 in 6.2 mi NNE 4.6 mph - N/A   Partly Cloudy
12:30 PM 59.0 °F - 37.4 °F 45% 30.30 in 6.2 mi ENE 9.2 mph - N/A   Partly Cloudy
1:00 PM 61 °F - 42 °F 38% 30.31 in 19 mi East 10.4 mph - -   Scattered Clouds
1:00 PM 60.8 °F - 39.2 °F 45% 30.30 in 6.2 mi ENE 9.2 mph - N/A   Partly Cloudy
1:30 PM 60.8 °F - 39.2 °F 45% 30.30 in 6.2 mi ENE 9.2 mph - N/A   Partly Cloudy
2:00 PM 62 °F - 43 °F 38% 30.30 in 11 mi ENE 10.4 mph - -  
2:00 PM 60.8 °F - 39.2 °F 45% 30.30 in 6.2 mi East 11.5 mph - N/A   Partly Cloudy
2:30 PM 62.6 °F - 39.2 °F 42% 30.27 in - East 9.2 mph - N/A   Clear
3:00 PM 62 °F - 43 °F 38% 30.28 in 19 mi East 8.1 mph - -  
3:00 PM 62.6 °F - 39.2 °F 42% 30.27 in - East 8.1 mph - N/A   Clear
3:30 PM 60.8 °F - 42.8 °F 52% 30.27 in - East 9.2 mph - N/A   Clear
4:00 PM 59.0 °F - 46.4 °F 63% 30.27 in - East 8.1 mph - N/A   Clear
4:30 PM 59.0 °F - 44.6 °F 59% 30.27 in - East 5.8 mph - N/A   Clear
5:00 PM 58 °F - 47 °F 58% 30.30 in 11 mi East 4.6 mph - -  
5:00 PM 57.2 °F - 44.6 °F 63% 30.27 in - East 5.8 mph - N/A   Clear
5:30 PM 55.4 °F - 44.6 °F 67% 30.30 in - East 3.5 mph - N/A   Clear
6:00 PM 56 °F - 46 °F 61% 30.31 in 11 mi ENE 3.5 mph - -  
6:00 PM 55.4 °F - 44.6 °F 67% 30.30 in - East 3.5 mph - N/A   Clear
6:30 PM 55.4 °F - 44.6 °F 67% 30.30 in - NNE 2.3 mph - N/A   Clear
7:00 PM 52 °F - 46 °F 71% 30.32 in 12 mi Calm Calm - -  
7:00 PM 51.8 °F - 42.8 °F 71% 30.30 in - NNW 3.5 mph - N/A   Clear
7:30 PM 50.0 °F - 42.8 °F 76% 30.30 in - NW 4.6 mph - N/A   Clear
8:00 PM 49 °F - 45 °F 80% 30.33 in 7 mi North 9.2 mph - -  
8:00 PM 50.0 °F - 42.8 °F 76% 30.33 in - NW 6.9 mph - N/A   Clear
8:30 PM 48.2 °F - 42.8 °F 82% 30.30 in - NW 8.1 mph - N/A   Clear
9:00 PM 48 °F - 44 °F 80% 30.32 in 8 mi North 6.9 mph - -  
9:00 PM 48.2 °F - 41.0 °F 76% 30.30 in - NW 9.2 mph - N/A   Clear
9:30 PM 48.2 °F - 41.0 °F 76% 30.30 in - NW 9.2 mph - N/A   Clear
10:00 PM 50.0 °F - 41.0 °F 71% 30.33 in - NW 9.2 mph - N/A   Clear
10:30 PM 50.0 °F - 39.2 °F 66% 30.30 in - NNW 10.4 mph - N/A   Clear
11:00 PM 49 °F - 41 °F 65% 30.32 in 9 mi NNW 9.2 mph - -  
11:00 PM 48.2 °F - 39.2 °F 71% 30.30 in - NW 10.4 mph - N/A   Clear
11:30 PM 48.2 °F - 37.4 °F 66% 30.30 in - NW 10.4 mph - N/A   Clear